This is the latest recevied weather packets stored in our database for station/object KB4MOX. If no packets are shown the sender has not sent any weather packets the latest 10 day(s).
| Time | Temp. | Humidity | Pressure | Rain* | Wind** | Luminosity | Snow |
|---|---|---|---|---|---|---|---|
| 1787695583 | 34.44° C | 41% | 1015.1 hPa | 0 mm | - | 249 W/m² | - |
| 1787695280 | 34.44° C | 41% | 1014.9 hPa | 0 mm | - | 267 W/m² | - |
| 1787694979 | 34.44° C | 40% | 1014.9 hPa | 0 mm | - | 287 W/m² | - |
| 1787694678 | 35° C | 40% | 1014.9 hPa | 0 mm | - | 310 W/m² | - |
| 1787694374 | 35° C | 40% | 1014.9 hPa | 0 mm | - | 331 W/m² | - |
| 1787694069 | 35° C | 39% | 1014.8 hPa | 0 mm | - | 358 W/m² | - |
| 1787693765 | 35° C | 40% | 1014.8 hPa | 0 mm | - | 360 W/m² | - |
| 1787693461 | 35° C | 40% | 1014.9 hPa | 0 mm | - | 385 W/m² | - |
| 1787693157 | 34.44° C | 41% | 1015.1 hPa | 0 mm | - | 390 W/m² | - |
| 1787692853 | 35° C | 40% | 1014.8 hPa | 0 mm | - | 422 W/m² | - |
| 1787692553 | 35° C | 40% | 1014.9 hPa | 0 mm | - | 441 W/m² | - |
| 1787692252 | 35° C | 40% | 1015 hPa | 0 mm | - | 435 W/m² | - |
| 1787691947 | 35.56° C | 39% | 1014.8 hPa | 0 mm | - | 450 W/m² | - |
| 1787691646 | 35.56° C | 39% | 1014.7 hPa | 0 mm | - | 484 W/m² | - |
| 1787691344 | 35.56° C | 39% | 1014.9 hPa | 0 mm | - | 492 W/m² | - |
| 1787691039 | 35.56° C | 39% | 1014.8 hPa | 0 mm | - | 526 W/m² | - |
| 1787690734 | 35° C | 40% | 1014.6 hPa | 0 mm | - | 558 W/m² | - |
| 1787690429 | 35.56° C | 39% | 1014.7 hPa | 0 mm | - | 577 W/m² | - |
| 1787690125 | 35° C | 39% | 1014.7 hPa | 0 mm | - | 585 W/m² | - |
| 1787689821 | 35° C | 40% | 1014.9 hPa | 0 mm | - | 590 W/m² | - |
| 1787689517 | 35° C | 39% | 1014.9 hPa | 0 mm | - | 565 W/m² | - |
| 1787689212 | 35.56° C | 38% | 1014.7 hPa | 0 mm | - | 591 W/m² | - |
| 1787688907 | 35.56° C | 38% | 1014.9 hPa | 0 mm | - | 625 W/m² | - |
| 1787688603 | 35.56° C | 39% | 1014.8 hPa | 0 mm | - | 633 W/m² | - |
| 1787688303 | 35.56° C | 38% | 1014.8 hPa | 0 mm | - | 642 W/m² | - |
* Rain latest hour (hover to see other rain measurements)
** Current wind speed in m/s (hover to see current wind gust speed)